Probability
0 0 0 1 2 5 8 9 8 6 3 2 2 1 1 0 0 0 0 0 0 0 0 0 0 0 0 0 0 0 0 0 0 0 0 0 0 0 0 0 0 0 0
0 0 0 0 1 3 6 9 12 10 7 7 8 8 6 3 1 0 0 0 0 0 0 0 0 0 0 0 0 0 0 0 0 0 0 0 0 0 0 0 0 0 0
0 0 0 0 0 1 3 5 7 9 9 10 12 14 12 9 6 3 1 0 0 0 0 0 0 0 0 1 1 0 0 0 0 0 0 0 0 0 0 0 0 0 0
0 0 0 0 0 0 0 0 1 3 4 5 6 10 12 14 15 12 7 5 3 1 0 0 0 0 0 2 2 1 0 0 0 0 0 0 0 0 0 0 0 0 0
0 0 0 0 0 0 0 0 0 0 0 0 0 2 5 13 21 20 17 16 12 8 4 3 2 2 1 2 3 2 1 1 0 0 0 0 0 0 0 0 0 0 0
0 0 0 0 0 0 0 0 0 0 0 0 0 0 1 6 14 19 21 23 24 23 19 14 10 10 8 4 2 1 2 3 1 0 0 0 0 1 0 0 0 0 0
0 0 0 0 0 0 0 0 0 0 0 0 0 0 0 1 4 9 13 19 25 32 36 31 25 25 24 15 8 5 5 3 1 0 0 0 2 3 2 1 1 0 0
0 0 0 0 0 0 0 0 0 0 0 0 0 0 0 0 0 1 4 8 13 23 33 39 39 39 37 31 27 23 15 5 1 0 0 1 4 5 4 5 6 3 0
0 0 0 0 0 0 0 0 0 0 0 0 0 0 0 0 0 0 0 1 3 8 16 27 38 44 43 40 46 47 31 11 2 0 0 1 4 6 9 16 20 14 8
0 0 0 0 0 0 0 0 0 0 0 0 0 0 0 0 0 0 0 0 0 1 4 11 22 36 42 44 50 52 37 18 5 0 2 6 10 11 17 32 44 41 32
0 0 0 0 0 0 0 0 0 0 0 0 0 0 0 0 0 0 0 0 0 0 0 2 7 18 30 34 38 37 30 17 6 2 7 19 24 20 26 48 67 69 62
0 0 0 0 0 0 0 0 0 0 0 0 0 0 0 0 0 0 0 0 0 0 0 0 1 5 10 13 17 21 18 12 6 4 15 34 39 31 35 57 76 80 76
0 0 0 0 0 0 0 0 0 0 0 0 0 0 0 0 0 0 0 0 0 0 0 0 0 0 0 0 4 7 9 10 9 8 21 46 58 48 45 59 75 80 77
0 0 0 0 0 0 0 0 0 0 0 0 0 0 0 0 0 0 0 0 0 0 0 0 0 0 0 0 0 1 4 8 10 11 22 49 67 62 52 57 71 81 82
0 0 0 0 0 0 0 0 0 0 0 0 0 0 0 0 0 0 0 0 0 0 0 0 0 0 0 0 0 0 1 4 7 11 19 36 54 55 47 49 65 81 88
0 0 0 0 0 0 0 0 0 0 0 0 0 0 0 0 0 0 0 0 0 0 0 0 0 0 0 0 0 0 0 1 3 7 12 20 29 34 33 37 54 75 86
0 0 0 0 0 0 0 0 0 0 0 0 0 0 0 0 0 0 0 0 0 0 0 0 0 0 0 0 0 0 0 0 0 2 5 10 14 18 22 30 47 67 79
0 0 0 0 0 0 0 0 0 0 0 0 0 0 0 0 0 0 0 0 0 0 0 0 0 0 0 0 0 0 0 0 0 0 2 5 8 10 13 24 44 63 75
0 0 0 0 0 0 0 0 0 0 0 0 0 0 0 0 0 0 0 0 0 0 0 0 0 0 0 0 0 0 0 0 0 0 0 1 3 5 6 13 30 53 68
0 0 0 0 0 0 0 0 0 0 0 0 0 0 0 0 0 0 0 0 0 0 0 0 0 0 0 0 0 0 0 0 0 0 0 0 0 1 3 6 13 29 44
0 0 0 0 0 0 0 0 0 0 0 0 0 0 0 0 0 0 0 0 0 0 0 0 0 0 0 0 0 0 0 0 0 0 0 0 0 0 1 2 4 10 14
0 0 0 0 0 0 0 0 0 0 0 0 0 0 0 0 0 0 0 0 0 0 0 0 0 0 0 0 0 0 0 0 0 0 0 0 0 0 0 1 2 3 2
0 0 0 0 0 0 0 0 0 0 0 0 0 0 0 0 0 0 0 0 0 0 0 0 0 0 0 0 0 0 0 0 0 0 0 0 0 0 0 1 3 3 2
0 0 0 0 0 0 0 0 0 0 0 0 0 0 0 0 0 0 0 0 0 0 0 0 0 0 0 0 0 0 0 0 0 0 0 0 0 0 0 1 3 4 4
0 0 0 0 0 0 0 0 0 0 0 0 0 0 0 0 0 0 0 0 0 0 0 0 0 0 0 0 0 0 0 0 0 0 0 0 0 0 0 0 1 3 6
0 0 0 0 0 0 0 0 0 0 0 0 0 0 0 0 0 0 0 0 0 0 0 0 0 0 0 0 0 0 0 0 0 0 0 0 0 0 0 0 0 2 5
Wind_Speed
13 16 27 28 28 27 25 24 22 20 19 18 17 16 15 14 14 13 13 12 11 10 10 10 10 10 9 8 7 6 5 4 4 4 4 3 2 2 2 1 3 1 7
11 15 24 26 26 27 26 26 25 24 22 21 19 18 16 15 14 13 13 13 12 12 11 11 11 11 11 10 9 7 6 5 4 4 4 4 4 4 4 2 2 3 6
10 13 18 25 25 26 26 25 25 25 24 23 22 21 19 17 16 14 14 13 13 12 12 12 11 11 11 11 10 9 8 7 6 5 5 5 6 8 6 4 1 2 3
10 10 16 23 24 25 26 25 25 25 24 24 23 22 21 20 18 17 16 15 14 14 13 13 12 12 11 11 10 10 9 9 8 6 5 6 6 9 8 6 3 2 2
9 9 15 23 24 24 25 25 25 25 25 24 24 24 23 22 20 19 17 16 15 15 14 13 13 12 11 11 11 11 11 10 8 7 6 7 4 10 9 7 6 4 4
10 10 14 24 24 24 24 25 25 25 25 24 25 25 24 22 22 21 20 19 17 16 15 14 13 13 12 10 11 11 12 10 8 6 7 7 3 10 10 8 7 5 5
11 12 15 25 26 25 24 25 24 24 25 24 25 25 24 23 22 22 21 21 21 19 17 16 14 14 13 11 11 11 11 10 7 6 6 7 4 10 11 10 9 8 7
12 12 14 23 27 27 26 25 25 24 25 24 24 26 25 24 23 22 22 22 22 21 20 18 16 14 14 13 12 11 10 9 9 9 8 6 7 11 12 11 10 10 9
12 12 13 14 18 24 26 26 26 24 25 25 24 26 26 25 24 23 23 24 23 23 22 20 19 17 15 14 13 10 9 10 7 5 9 6 9 13 14 12 11 11 11
12 13 14 14 15 15 15 23 26 24 24 25 24 26 25 24 22 23 23 24 24 24 23 22 21 20 17 15 13 11 10 8 7 7 6 6 10 14 15 13 11 12 12
15 14 14 15 15 15 14 19 19 20 21 22 18 24 20 12 12 13 21 24 25 25 24 23 24 23 19 14 13 13 10 5 6 7 6 9 12 14 15 13 11 12 13
15 15 13 14 14 14 14 12 9 11 11 12 11 12 9 10 10 14 20 23 24 24 22 24 25 21 15 8 10 11 5 7 8 7 7 13 15 16 15 13 12 13 14
12 13 14 14 14 14 11 10 8 7 8 9 11 12 10 8 8 9 8 11 12 16 11 15 15 11 11 9 8 7 6 6 5 6 7 15 17 17 16 14 13 13 15
12 14 14 14 13 13 12 10 9 8 8 9 10 12 9 7 9 9 8 9 8 7 9 9 9 12 13 13 12 10 9 6 5 5 6 14 16 16 16 15 14 15 15
13 14 13 13 13 12 11 9 10 9 9 10 9 9 10 8 9 10 9 9 10 8 9 10 10 12 12 13 12 12 11 10 9 7 4 11 14 15 16 16 16 16 16
12 13 13 14 14 14 12 10 9 9 8 9 8 10 11 9 9 9 10 9 9 9 9 9 11 10 10 10 13 14 13 11 9 8 6 7 13 15 16 16 17 17 17
11 12 14 14 15 15 14 12 11 9 10 9 9 10 11 12 10 10 9 9 9 10 11 9 10 8 10 11 12 14 13 12 12 11 8 5 7 13 15 17 17 18 18
11 12 13 14 15 14 13 11 10 10 10 9 9 8 12 14 13 10 9 9 10 10 9 10 9 10 9 10 10 11 11 11 14 12 9 7 5 7 12 16 17 18 18
11 12 13 12 13 13 12 10 10 10 10 9 8 8 11 13 14 12 10 9 11 9 9 11 11 10 11 11 11 10 9 10 12 13 12 10 6 5 6 12 17 16 17
10 11 12 12 13 13 10 9 8 9 8 8 7 9 12 11 13 12 10 13 12 9 9 10 12 11 10 11 13 12 11 12 11 11 12 10 7 7 6 6 8 11 16
10 11 11 12 12 11 10 11 11 11 10 9 7 11 12 12 13 11 10 11 12 10 12 13 12 13 10 10 10 12 10 11 12 10 10 9 9 8 6 7 6 6 7
10 10 10 11 11 10 9 9 9 10 9 9 8 10 11 12 13 12 11 10 11 11 12 13 13 10 10 10 10 10 8 7 5 8 7 9 9 7 7 8 8 7 6
9 9 11 10 11 10 10 8 10 8 7 7 9 7 9 12 12 11 10 10 10 10 10 13 13 13 11 10 8 7 6 6 12 10 10 7 5 6 7 7 9 9 8
8 8 9 10 10 9 9 10 12 11 10 11 9 9 11 12 12 12 11 11 10 9 11 11 12 12 12 10 8 7 8 9 8 9 11 10 11 9 6 7 8 8 8
7 7 7 9 9 9 9 10 10 9 9 9 10 11 10 10 11 12 12 11 11 10 11 12 12 12 10 10 9 9 9 8 10 9 13 14 10 8 7 6 6 7 8
7 7 7 8 9 9 9 9 10 11 11 12 12 10 10 9 8 10 14 11 12 10 11 12 12 13 12 12 10 8 9 8 8 8 10 13 14 11 10 8 5 5 5
Wind_Direction
346 352 357 8 15 18 18 16 14 11 8 4 2 0 358 354 351 349 347 346 345 344 340 333 327 323 319 318 319 320 317 315 317 320 308 284 239 185 150 191 314 225 114
347 359 4 12 17 21 22 22 21 19 15 11 6 1 356 350 345 340 337 336 336 335 334 331 322 314 308 305 305 305 301 296 296 302 291 265 234 214 193 197 351 89 114
359 11 9 16 20 23 23 22 21 20 18 16 12 7 2 355 348 340 335 331 329 328 327 325 320 310 301 297 295 292 288 285 281 280 276 257 218 211 202 186 144 92 114
5 18 14 18 22 24 24 24 22 20 19 16 13 9 5 1 356 349 342 337 332 328 323 319 315 308 296 288 283 279 277 276 272 268 262 253 221 201 193 184 189 184 163
7 19 17 18 21 23 22 22 21 19 18 16 14 10 6 3 1 357 351 345 337 331 323 316 311 308 299 287 277 270 266 266 264 259 265 270 235 180 185 186 194 202 193
12 12 17 18 18 19 20 18 18 16 15 14 13 10 7 5 4 3 0 355 348 338 329 319 312 307 302 291 278 267 260 257 256 247 249 261 231 171 180 187 194 205 203
16 12 13 16 14 13 14 14 12 12 11 10 11 8 5 4 4 4 5 1 355 347 338 326 314 308 302 295 283 270 259 251 243 251 250 249 228 178 184 190 196 203 205
16 14 12 13 11 8 7 9 7 8 7 5 8 6 2 0 1 2 3 1 356 351 345 336 322 311 302 295 288 277 262 249 245 241 245 241 222 190 193 195 202 204 204
20 14 12 12 9 5 1 3 2 2 5 1 4 4 0 357 358 358 0 356 353 350 346 341 333 320 306 294 286 278 265 247 245 256 257 240 223 208 205 201 207 208 204
22 16 13 9 8 2 354 359 358 358 2 359 1 1 359 355 354 354 356 350 350 348 345 343 341 331 315 298 285 273 260 251 240 246 248 242 231 218 213 207 211 213 206
20 15 13 7 6 1 353 355 353 354 358 356 358 357 356 348 347 350 351 346 348 345 344 347 343 336 328 305 282 264 251 232 238 240 233 234 226 218 213 211 215 215 207
15 11 12 5 3 0 355 352 346 349 352 351 352 351 351 348 344 352 345 343 345 341 346 346 343 340 338 323 306 283 254 234 238 243 226 215 216 216 214 214 218 216 208
12 9 9 4 2 0 354 350 346 346 348 347 347 347 348 346 343 349 341 337 338 338 344 342 341 335 329 324 315 304 276 257 248 248 232 209 207 213 216 218 221 219 212
12 9 7 3 1 359 353 348 345 345 346 344 342 346 348 348 348 345 339 332 334 334 339 341 331 328 329 324 317 312 297 274 263 261 250 207 196 205 214 221 224 224 219
11 6 4 359 1 357 352 348 347 343 344 341 339 343 349 354 346 343 335 333 329 334 340 332 326 329 328 324 323 321 314 299 278 263 256 210 194 198 210 220 225 227 225
8 5 2 359 1 357 353 349 344 341 341 339 338 342 350 355 342 341 332 330 329 338 334 326 325 326 324 325 326 324 317 309 294 280 259 225 209 200 207 219 225 228 227
8 5 3 359 0 356 350 350 345 340 342 339 337 340 353 351 339 339 331 328 332 335 330 327 324 327 329 329 325 324 319 314 307 296 279 245 219 213 209 215 222 227 228
10 7 4 1 358 354 348 350 342 342 342 338 337 343 352 345 342 339 332 328 335 336 330 330 336 337 330 325 321 315 310 306 302 297 289 269 233 214 214 215 219 224 228
12 8 2 360 357 351 348 347 339 341 338 335 337 344 347 342 343 339 330 333 338 335 334 337 337 332 329 325 317 307 305 303 298 293 286 275 255 229 203 210 215 220 225
13 9 0 358 356 350 349 343 337 338 335 331 336 345 343 340 340 335 331 337 336 333 335 332 330 332 327 323 318 313 304 292 283 277 275 270 258 240 219 206 203 219 222
11 8 359 357 353 351 351 344 340 339 335 331 339 343 338 339 337 332 337 335 334 333 331 330 331 326 326 323 321 320 299 278 265 261 257 256 251 242 224 214 203 200 213
10 5 356 355 350 350 348 338 335 330 327 329 338 332 333 337 335 336 338 336 334 330 328 330 328 324 323 331 327 320 315 306 329 295 267 246 240 232 225 217 208 210 204
12 4 354 350 347 347 345 338 336 327 328 334 334 329 334 336 333 331 334 335 330 329 326 327 325 326 322 319 315 312 317 325 331 307 309 293 266 237 223 218 212 209 210
11 2 351 345 343 344 345 341 340 339 336 334 331 327 333 333 330 331 335 335 329 327 323 322 326 320 316 314 313 298 288 294 296 310 314 321 322 295 257 227 216 209 207
10 358 346 341 341 342 344 340 337 333 329 328 327 328 331 327 327 332 335 333 327 322 321 320 319 315 311 307 307 303 294 282 266 277 292 302 308 305 296 265 225 208 203
7 355 343 341 340 342 342 339 337 332 331 330 332 331 329 326 327 332 333 330 324 321 320 319 316 312 308 303 301 301 296 285 275 267 273 288 297 301 306 294 266 218 196